FIN3KP EBAW-EFHK

Flight info

Callsign FIN3KP
Flight time N/A
Altitude 37000
Route NIK L191 VICOT N873 ANDIK DCT TUGDU/N0453F380 M852 ALASA/N0452F370 DCT EVADI Y370 DIVAM
Aircraft A319/M-SDE3FGHIRWY/LB1

Departure

Time 2026-04-16 07:42
Airport Antwerp International Airport (Deurne) (EBAW)

Arrival

Time N/A
Airport Helsinki Vantaa Airport (EFHK)
Time Latitude Longitude Altitude Speed Heading
2026-04-16 07:22 51.18728 4.45472 38 ft 0 kts 36°
2026-04-16 07:37 51.18777 4.45471 39 ft 12 kts 354°
2026-04-16 07:37 51.18842 4.45454 39 ft 15 kts 346°
2026-04-16 07:38 51.18949 4.45405 39 ft 17 kts 21°
2026-04-16 07:38 51.19026 4.45545 39 ft 17 kts 52°
2026-04-16 07:38 51.19097 4.45694 40 ft 16 kts 57°
2026-04-16 07:38 51.19100 4.45857 40 ft 15 kts 109°
2026-04-16 07:39 51.19063 4.46015 43 ft 15 kts 111°
2026-04-16 07:39 51.19019 4.46201 44 ft 21 kts 110°
2026-04-16 07:39 51.18964 4.46447 46 ft 26 kts 109°
2026-04-16 07:39 51.18896 4.46752 43 ft 32 kts 111°
2026-04-16 07:40 51.18818 4.47066 42 ft 22 kts 114°
2026-04-16 07:40 51.18785 4.47245 42 ft 8 kts 44°
2026-04-16 07:40 51.18798 4.47220 41 ft 4 kts 276°
2026-04-16 07:40 51.18806 4.47165 42 ft 5 kts 289°
2026-04-16 07:41 51.18806 4.47162 40 ft 0 kts 289°
2026-04-16 07:41 51.18820 4.47102 41 ft 30 kts 290°
2026-04-16 07:41 51.19000 4.46303 43 ft 120 kts 290°
2026-04-16 07:42 51.19358 4.44754 353 ft 158 kts 287°
2026-04-16 07:42 51.19691 4.43138 1281 ft 151 kts 278°
2026-04-16 07:42 51.19646 4.41499 2040 ft 151 kts 256°
2026-04-16 07:42 51.19345 4.39811 2512 ft 169 kts 254°
2026-04-16 07:43 51.19026 4.37884 2864 ft 191 kts 255°
2026-04-16 07:43 51.18687 4.35678 3279 ft 217 kts 255°
2026-04-16 07:43 51.18331 4.33201 3826 ft 240 kts 256°
2026-04-16 07:43 51.17974 4.30551 4730 ft 247 kts 256°
2026-04-16 07:44 51.17628 4.27844 5744 ft 250 kts 257°
2026-04-16 07:44 51.17292 4.25107 6737 ft 254 kts 257°
2026-04-16 07:44 51.17007 4.22311 7643 ft 259 kts 265°
2026-04-16 07:44 51.17235 4.19444 8548 ft 267 kts 285°
2026-04-16 07:45 51.18118 4.16802 9461 ft 276 kts 306°
2026-04-16 07:45 51.19571 4.14731 10352 ft 284 kts 320°
2026-04-16 07:45 51.21218 4.12805 10757 ft 306 kts 320°
2026-04-16 07:45 51.23003 4.10709 11034 ft 330 kts 320°
2026-04-16 07:46 51.24890 4.08512 11584 ft 342 kts 322°
2026-04-16 07:46 51.27015 4.06709 12328 ft 351 kts 335°
2026-04-16 07:46 51.29390 4.05640 13109 ft 360 kts 347°
2026-04-16 07:46 51.31913 4.05363 13883 ft 367 kts 355°
2026-04-16 07:47 51.34485 4.05316 14576 ft 370 kts 355°
2026-04-16 07:47 51.37033 4.05271 15254 ft 373 kts 355°
2026-04-16 07:47 51.39643 4.05223 15942 ft 376 kts 355°
2026-04-16 07:47 51.42272 4.05172 16631 ft 380 kts 355°
2026-04-16 07:48 51.44924 4.05121 17303 ft 383 kts 355°
2026-04-16 07:48 51.47612 4.05473 17964 ft 392 kts
2026-04-16 07:48 51.50269 4.06640 18601 ft 402 kts 16°
2026-04-16 07:48 51.52848 4.08487 19163 ft 408 kts 20°
2026-04-16 07:49 51.55433 4.10410 19735 ft 412 kts 20°
2026-04-16 07:49 51.58048 4.12352 20323 ft 415 kts 20°
2026-04-16 07:49 51.60678 4.14303 20912 ft 418 kts 19°
2026-04-16 07:49 51.63328 4.16270 21461 ft 421 kts 19°
2026-04-16 07:50 51.65995 4.18253 22002 ft 424 kts 19°
2026-04-16 07:50 51.68682 4.20258 22528 ft 427 kts 19°
2026-04-16 07:50 51.71392 4.22287 23051 ft 430 kts 19°
2026-04-16 07:50 51.74112 4.24323 23563 ft 433 kts 19°
2026-04-16 07:51 51.76863 4.26384 23991 ft 437 kts 19°
2026-04-16 07:51 51.79625 4.28456 24411 ft 439 kts 19°
2026-04-16 07:51 51.82403 4.30542 24831 ft 441 kts 19°
2026-04-16 07:51 51.85192 4.32638 25248 ft 443 kts 19°
2026-04-16 07:52 51.87996 4.34747 25664 ft 446 kts 19°
2026-04-16 07:52 51.90812 4.36873 26079 ft 448 kts 19°
2026-04-16 07:52 51.93640 4.39011 26491 ft 450 kts 19°
2026-04-16 07:52 51.96485 4.41162 26936 ft 452 kts 19°
2026-04-16 07:53 51.99343 4.43325 27301 ft 455 kts 18°
2026-04-16 07:53 52.02217 4.45509 27688 ft 457 kts 18°
2026-04-16 07:53 52.05105 4.47706 28079 ft 459 kts 18°
2026-04-16 07:53 52.08006 4.49914 28456 ft 462 kts 18°
2026-04-16 07:54 52.10922 4.52136 28831 ft 464 kts 18°
2026-04-16 07:54 52.13856 4.54373 29199 ft 466 kts 18°
2026-04-16 07:54 52.16795 4.56618 29548 ft 468 kts 18°
2026-04-16 07:54 52.19746 4.58879 29937 ft 470 kts 18°
2026-04-16 07:55 52.22712 4.61155 30239 ft 473 kts 18°
2026-04-16 07:55 52.25655 4.63412 30525 ft 474 kts 18°
2026-04-16 07:55 52.28639 4.65704 30917 ft 474 kts 18°
2026-04-16 07:55 52.31617 4.67999 31306 ft 473 kts 18°
2026-04-16 07:56 52.34590 4.70292 31682 ft 472 kts 18°
2026-04-16 07:56 52.37560 4.72587 32077 ft 472 kts 18°
2026-04-16 07:56 52.40528 4.74886 32463 ft 472 kts 18°
2026-04-16 07:56 52.43491 4.77187 32889 ft 471 kts 19°
2026-04-16 07:57 52.46455 4.79491 33238 ft 472 kts 19°
2026-04-16 07:57 52.49420 4.81796 33614 ft 472 kts 19°
2026-04-16 07:57 52.52297 4.84484 33991 ft 479 kts 28°
2026-04-16 07:57 52.54929 4.87908 34337 ft 486 kts 38°
2026-04-16 07:58 52.57237 4.92006 34654 ft 492 kts 47°
2026-04-16 07:58 52.59348 4.96426 34978 ft 492 kts 48°
2026-04-16 07:58 52.61460 5.00850 35306 ft 491 kts 48°
2026-04-16 07:58 52.63571 5.05267 35632 ft 490 kts 48°
2026-04-16 07:59 52.65676 5.09675 35977 ft 489 kts 48°
2026-04-16 07:59 52.67779 5.14081 36248 ft 489 kts 49°
2026-04-16 07:59 52.69883 5.18491 36515 ft 489 kts 49°
2026-04-16 07:59 52.71984 5.22907 36778 ft 489 kts 49°
2026-04-16 08:00 52.74074 5.27316 37036 ft 489 kts 49°
2026-04-16 08:00 52.76148 5.31783 37155 ft 490 kts 50°
2026-04-16 08:00 52.78194 5.36296 37173 ft 490 kts 51°
2026-04-16 08:01 52.82225 5.45375 37164 ft 490 kts 51°
2026-04-16 08:01 52.86245 5.54460 37160 ft 489 kts 51°
2026-04-16 08:02 52.90278 5.63526 37154 ft 489 kts 51°
2026-04-16 08:02 52.96315 5.77081 37152 ft 489 kts 51°
2026-04-16 08:03 53.00340 5.86182 37153 ft 490 kts 51°
2026-04-16 08:03 53.04357 5.95324 37154 ft 490 kts 51°
2026-04-16 08:04 53.08373 6.04476 37155 ft 490 kts 51°
2026-04-16 08:04 53.12386 6.13646 37170 ft 490 kts 51°
2026-04-16 08:05 53.16389 6.22840 37170 ft 490 kts 51°
2026-04-16 08:05 53.20385 6.32069 37169 ft 491 kts 52°
2026-04-16 08:06 53.24376 6.41305 37175 ft 491 kts 52°
2026-04-16 08:06 53.28363 6.50558 37172 ft 491 kts 52°
2026-04-16 08:07 53.32342 6.59824 37176 ft 491 kts 52°
2026-04-16 08:07 53.36310 6.69094 37174 ft 490 kts 52°
2026-04-16 08:08 53.40271 6.78389 37166 ft 490 kts 52°
2026-04-16 08:08 53.44228 6.87708 37162 ft 490 kts 52°
2026-04-16 08:09 53.48167 6.97021 37159 ft 489 kts 52°
2026-04-16 08:09 53.52096 7.06346 37154 ft 489 kts 52°
2026-04-16 08:10 53.56015 7.15698 37167 ft 489 kts 52°
2026-04-16 08:10 53.59931 7.25074 37162 ft 489 kts 52°
2026-04-16 08:11 53.63814 7.34388 37155 ft 489 kts 52°
2026-04-16 08:11 53.67712 7.43769 37159 ft 488 kts 52°
2026-04-16 08:12 53.71598 7.53156 37152 ft 488 kts 52°
2026-04-16 08:12 53.75476 7.62560 37176 ft 488 kts 53°
2026-04-16 08:13 53.79346 7.71986 37165 ft 487 kts 53°
2026-04-16 08:13 53.83202 7.81413 37158 ft 487 kts 53°
2026-04-16 08:14 53.87048 7.90857 37153 ft 487 kts 53°
2026-04-16 08:14 53.90884 8.00315 37158 ft 486 kts 53°
2026-04-16 08:15 53.94699 8.09755 37159 ft 486 kts 53°
2026-04-16 08:15 53.98517 8.19238 37178 ft 485 kts 53°
2026-04-16 08:16 54.02319 8.28711 37167 ft 485 kts 53°
2026-04-16 08:16 54.06117 8.38202 37159 ft 485 kts 53°
2026-04-16 08:17 54.09901 8.47699 37138 ft 484 kts 54°
2026-04-16 08:17 54.13672 8.57199 37147 ft 484 kts 54°
2026-04-16 08:19 54.28631 8.95274 37145 ft 482 kts 54°
2026-04-16 08:20 54.32324 9.04764 37147 ft 482 kts 54°
2026-04-16 08:20 54.36039 9.14324 37136 ft 482 kts 54°
2026-04-16 08:21 54.39742 9.23922 37135 ft 482 kts 54°
2026-04-16 08:21 54.43436 9.33535 37148 ft 483 kts 54°
2026-04-16 08:22 54.47126 9.43167 37143 ft 482 kts 54°
2026-04-16 08:22 54.50816 9.52810 37138 ft 482 kts 54°
2026-04-16 08:23 54.54491 9.62480 37139 ft 482 kts 55°
2026-04-16 08:23 54.58149 9.72140 37142 ft 482 kts 54°
2026-04-16 08:24 54.61891 9.81715 37167 ft 479 kts 48°
2026-04-16 08:24 54.66804 9.89236 37167 ft 469 kts 28°
2026-04-16 08:25 54.72742 9.93497 37164 ft 459 kts
2026-04-16 08:25 54.78872 9.96548 37157 ft 465 kts 23°
2026-04-16 08:26 54.83328 10.01825 37152 ft 471 kts 40°
2026-04-16 08:26 54.88361 10.11827 37170 ft 474 kts 48°
2026-04-16 08:27 54.92591 10.20619 37169 ft 474 kts 48°
2026-04-16 08:27 54.96129 10.28004 37170 ft 474 kts 48°
2026-04-16 08:28 55.00333 10.36847 37175 ft 474 kts 48°
2026-04-16 08:28 55.04537 10.45722 37176 ft 474 kts 48°
2026-04-16 08:29 55.08733 10.54622 37189 ft 475 kts 49°
2026-04-16 08:29 55.12919 10.63535 37196 ft 475 kts 49°
2026-04-16 08:30 55.17069 10.72407 37196 ft 475 kts 49°
2026-04-16 08:30 55.21248 10.81372 37201 ft 475 kts 49°
2026-04-16 08:31 55.25420 10.90345 37201 ft 475 kts 49°
2026-04-16 08:31 55.29585 10.99326 37213 ft 475 kts 50°
2026-04-16 08:32 55.33734 11.08321 37209 ft 474 kts 50°
2026-04-16 08:32 55.37873 11.17333 37201 ft 473 kts 50°
2026-04-16 08:33 55.42003 11.26340 37200 ft 473 kts 50°
2026-04-16 08:33 55.46123 11.35364 37203 ft 473 kts 50°
2026-04-16 08:34 55.50231 11.44415 37209 ft 472 kts 50°
2026-04-16 08:34 55.54332 11.53483 37207 ft 472 kts 50°
2026-04-16 08:35 55.58430 11.62553 37201 ft 472 kts 50°
2026-04-16 08:35 55.62516 11.71633 37205 ft 472 kts 50°
2026-04-16 08:36 55.66593 11.80743 37203 ft 472 kts 50°
2026-04-16 08:36 55.70638 11.89806 37200 ft 472 kts 50°
2026-04-16 08:37 55.74710 11.98948 37216 ft 472 kts 50°
2026-04-16 08:37 55.78777 12.08123 37222 ft 473 kts 51°
2026-04-16 08:38 55.82866 12.17383 37212 ft 481 kts 51°
2026-04-16 08:38 55.87006 12.26798 37213 ft 484 kts 51°
2026-04-16 08:39 55.91143 12.36267 37217 ft 484 kts 51°
2026-04-16 08:39 55.95275 12.45753 37220 ft 484 kts 51°
2026-04-16 08:40 55.99384 12.55214 37218 ft 482 kts 51°
2026-04-16 08:40 56.03484 12.64684 37224 ft 481 kts 51°
2026-04-16 08:41 56.07574 12.74189 37214 ft 483 kts 51°
2026-04-16 08:41 56.11679 12.83732 37214 ft 484 kts 51°
2026-04-16 08:42 56.15776 12.93308 37219 ft 484 kts 51°
2026-04-16 08:42 56.19862 13.02924 37238 ft 485 kts 51°
2026-04-16 08:43 56.23954 13.12558 37243 ft 485 kts 51°
2026-04-16 08:43 56.28029 13.22209 37241 ft 484 kts 52°